Victorville, CA

9:53 AM PDT on June 28, 2017 (GMT -0700)
Southern California Logistics

Weather History for KVCV - January, 2013

Change the Weather History Date:

Friday, January 11, 2013

  Actual Average (KSBD) Record (KSBD)
Temperature  
Mean Temperature 34 °F -  
Max Temperature 41 °F 66 °F 75 °F (2014)
Min Temperature 24 °F 41 °F 30 °F (2013)
Degree Days  
Heating Degree Days 32    
Moisture  
Dew Point 18 °F    
Average Humidity 55    
Maximum Humidity 69    
Minimum Humidity 36    
Precipitation  
Precipitation 0.00 in - - ()
Sea Level Pressure  
Sea Level Pressure 30.04 in    
Wind  
Wind Speed 13 mph (SW)    
Max Wind Speed 24 mph    
Max Gust Speed 31 mph    
Visibility 10 miles    
Events      
Averages and records for this station are not official NWS values.
T = Trace of Precipitation, MM = Missing Value Source: NWS Daily Summary

Daily Weather History Graph

Daily Weather History Graph

Search for Another Location

Airport or City:

Trip Planner

Search our weather history database for the weather conditions in past years. The results will help you decide how hot, cold, wet, or windy it might be!

Date:

Astronomy

Jan. 11, 2013 Rise Set
Actual Time 6:56 AM PST 4:58 PM PST
Civil Twilight 6:29 AM PST 5:26 PM PST
Nautical Twilight 5:58 AM PST 5:57 PM PST
Astronomical Twilight 5:27 AM PST 6:27 PM PST
Moon 6:35 AM PST (1/11) 5:19 PM PST (1/11)
Length of Visible Light 10h 56m
Length of Day
10h 01m
New Moon, 0% of the Moon is Illuminated
Jan 11
New Moon
Jan 18
First Quarter
Jan 26
Full
Feb 3
Last Quarter
Feb 9
New

Hourly Weather History & Observations

Time (PST) Temp. Windchill Dew Point Humidity Pressure Visibility Wind Dir Wind Speed Gust Speed Precip Events Conditions
12:15 AM 30.2 °F 21.9 °F 19.4 °F 64% 30.02 in 10.0 mi SW 9.2 mph - N/A   Clear
12:35 AM 30.2 °F 21.9 °F 19.4 °F 64% 30.02 in 10.0 mi South 9.2 mph - N/A   Clear
12:55 AM 30.2 °F 19.8 °F 17.6 °F 60% 30.02 in 10.0 mi SW 13.8 mph 19.6 mph N/A   Clear
1:15 AM 30.2 °F 20.2 °F 17.6 °F 60% 30.02 in 10.0 mi SSW 12.7 mph - N/A   Clear
1:35 AM 30.2 °F 26.7 °F 17.6 °F 60% 30.04 in 10.0 mi WSW 3.5 mph - N/A   Clear
1:55 AM 28.4 °F 20.4 °F 17.6 °F 64% 30.03 in 10.0 mi South 8.1 mph - N/A   Clear
2:15 AM 30.2 °F 22.6 °F 17.6 °F 60% 30.03 in 10.0 mi SW 8.1 mph - N/A   Clear
2:35 AM 30.2 °F 21.9 °F 17.6 °F 60% 30.04 in 10.0 mi SW 9.2 mph 16.1 mph N/A   Clear
2:55 AM 30.2 °F - 17.6 °F 60% 30.05 in 10.0 mi Calm Calm - N/A   Clear
3:15 AM 30.2 °F 26.7 °F 17.6 °F 60% 30.04 in 10.0 mi NNW 3.5 mph - N/A   Clear
3:35 AM 30.2 °F 20.8 °F 17.6 °F 60% 30.04 in 10.0 mi WSW 11.5 mph - N/A   Clear
4:15 AM 30.2 °F 17.4 °F 17.6 °F 60% 30.02 in 10.0 mi WSW 20.7 mph 26.5 mph N/A   Clear
4:35 AM 30.2 °F 17.4 °F 17.6 °F 60% 30.02 in 10.0 mi SW 20.7 mph 27.6 mph N/A   Clear
4:55 AM 30.2 °F 17.4 °F 17.6 °F 60% 30.03 in 10.0 mi WSW 20.7 mph 25.3 mph N/A   Clear
5:15 AM 28.4 °F 17.5 °F 17.6 °F 64% 30.05 in 10.0 mi SW 13.8 mph 19.6 mph N/A   Clear
5:35 AM 28.4 °F 15.1 °F 17.6 °F 64% 30.04 in 10.0 mi SW 20.7 mph - N/A   Clear
5:55 AM 28.4 °F 15.4 °F 17.6 °F 64% 30.05 in 10.0 mi SW 19.6 mph - N/A   Clear
6:15 AM 28.4 °F 15.8 °F 17.6 °F 64% 30.06 in 10.0 mi SW 18.4 mph 24.2 mph N/A   Clear
6:35 AM 28.4 °F 16.2 °F 17.6 °F 64% 30.06 in 10.0 mi SW 17.3 mph - N/A   Clear
6:55 AM 28.4 °F 16.6 °F 17.6 °F 64% 30.07 in 10.0 mi SW 16.1 mph - N/A   Clear
7:15 AM 28.4 °F 16.6 °F 17.6 °F 64% 30.07 in 10.0 mi SW 16.1 mph 20.7 mph N/A   Clear
7:35 AM 28.4 °F 18.5 °F 17.6 °F 64% 30.08 in 10.0 mi SW 11.5 mph - N/A   Clear
8:15 AM 33.8 °F 22.8 °F 19.4 °F 56% 30.08 in 10.0 mi WSW 18.4 mph 26.5 mph N/A   Clear
8:35 AM 33.8 °F 22.2 °F 19.4 °F 56% 30.09 in 10.0 mi WSW 20.7 mph 27.6 mph N/A   Clear
8:55 AM 35.6 °F 25.5 °F 19.4 °F 52% 30.09 in 10.0 mi WSW 17.3 mph 27.6 mph N/A   Clear
9:15 AM 35.6 °F 24.5 °F 19.4 °F 52% 30.08 in 10.0 mi SW 20.7 mph 27.6 mph N/A   Clear
9:35 AM 37.4 °F 27.5 °F 19.4 °F 48% 30.08 in 10.0 mi SW 18.4 mph 26.5 mph N/A   Clear
9:55 AM 37.4 °F 27.2 °F 17.6 °F 45% 30.09 in 10.0 mi SW 19.6 mph 28.8 mph N/A   Clear
10:15 AM 37.4 °F 26.4 °F 17.6 °F 45% 30.08 in 10.0 mi WSW 23.0 mph 31.1 mph N/A   Clear
10:35 AM 37.4 °F 27.8 °F 17.6 °F 45% 30.08 in 10.0 mi WSW 17.3 mph 25.3 mph N/A   Clear
10:55 AM 39.2 °F 30.2 °F 17.6 °F 42% 30.07 in 10.0 mi WSW 17.3 mph 27.6 mph N/A   Clear
11:15 AM 39.2 °F 30.5 °F 17.6 °F 42% 30.06 in 10.0 mi WSW 16.1 mph 26.5 mph N/A   Clear
11:35 AM 39.2 °F 29.8 °F 17.6 °F 42% 30.05 in 10.0 mi WSW 18.4 mph 25.3 mph N/A   Unknown
11:55 AM 41.0 °F 33.1 °F 15.8 °F 36% 30.05 in 10.0 mi WSW 15.0 mph 24.2 mph N/A   Unknown
12:15 PM 41.0 °F 32.2 °F 15.8 °F 36% 30.03 in 10.0 mi WSW 18.4 mph 26.5 mph N/A   Scattered Clouds
12:35 PM 41.0 °F 32.5 °F 15.8 °F 36% 30.03 in 10.0 mi WSW 17.3 mph 25.3 mph N/A   Mostly Cloudy
12:55 PM 41.0 °F 32.2 °F 17.6 °F 39% 30.02 in 10.0 mi WSW 18.4 mph 23.0 mph N/A   Mostly Cloudy
1:15 PM 41.0 °F 32.8 °F 15.8 °F 36% 30.02 in 10.0 mi West 16.1 mph 24.2 mph N/A   Mostly Cloudy
1:35 PM 39.2 °F 30.2 °F 15.8 °F 39% 30.02 in 10.0 mi WSW 17.3 mph 23.0 mph N/A   Mostly Cloudy
1:55 PM 39.2 °F 30.2 °F 15.8 °F 39% 30.02 in 10.0 mi West 17.3 mph 23.0 mph N/A   Mostly Cloudy
2:15 PM 41.0 °F 30.9 °F 17.6 °F 39% 30.02 in 10.0 mi SW 24.2 mph 27.6 mph N/A   Overcast
2:35 PM 39.2 °F 30.2 °F 17.6 °F 42% 30.02 in 10.0 mi WSW 17.3 mph 26.5 mph N/A   Mostly Cloudy
2:55 PM 37.4 °F 27.8 °F 17.6 °F 45% 30.02 in 10.0 mi WSW 17.3 mph 25.3 mph N/A   Mostly Cloudy
3:15 PM 39.2 °F 29.6 °F 17.6 °F 42% 30.02 in 10.0 mi SW 19.6 mph 27.6 mph N/A   Mostly Cloudy
3:35 PM 37.4 °F 27.5 °F 17.6 °F 45% 30.01 in 10.0 mi WSW 18.4 mph 24.2 mph N/A   Mostly Cloudy
3:55 PM 37.4 °F 27.8 °F 17.6 °F 45% 30.01 in 10.0 mi WSW 17.3 mph 25.3 mph N/A   Clear
4:15 PM 37.4 °F 27.8 °F 17.6 °F 45% 30.01 in 10.0 mi SW 17.3 mph 20.7 mph N/A   Clear
4:35 PM 35.6 °F 26.2 °F 17.6 °F 48% 30.01 in 10.0 mi WSW 15.0 mph 25.3 mph N/A   Clear
4:55 PM 35.6 °F 25.9 °F 17.6 °F 48% 30.01 in 10.0 mi WSW 16.1 mph 24.2 mph N/A   Clear
5:15 PM 35.6 °F 26.2 °F 17.6 °F 48% 30.01 in 10.0 mi WSW 15.0 mph 19.6 mph N/A   Clear
5:55 PM 33.8 °F 25.3 °F 19.4 °F 56% 30.02 in 10.0 mi SW 11.5 mph - N/A   Clear
6:15 PM 33.8 °F 24.3 °F 19.4 °F 56% 30.02 in 10.0 mi SW 13.8 mph - N/A   Clear
6:35 PM 32.0 °F 22.5 °F 19.4 °F 60% 30.02 in 10.0 mi SW 12.7 mph 17.3 mph N/A   Clear
6:55 PM 32.0 °F 22.5 °F 19.4 °F 60% 30.02 in 10.0 mi SW 12.7 mph - N/A   Clear
7:15 PM 30.2 °F 20.2 °F 19.4 °F 64% 30.02 in 10.0 mi SW 12.7 mph 17.3 mph N/A   Clear
7:35 PM 30.2 °F 20.8 °F 19.4 °F 64% 30.02 in 10.0 mi SW 11.5 mph - N/A   Clear
7:55 PM 30.2 °F 21.3 °F 19.4 °F 64% 30.02 in 10.0 mi SW 10.4 mph - N/A   Clear
8:15 PM 30.2 °F 21.3 °F 19.4 °F 64% 30.01 in 10.0 mi SW 10.4 mph - N/A   Clear
8:35 PM 28.4 °F 19.7 °F 19.4 °F 69% 30.02 in 10.0 mi SW 9.2 mph - N/A   Clear
8:55 PM 28.4 °F 20.4 °F 17.6 °F 64% 30.02 in 10.0 mi SW 8.1 mph - N/A   Clear
9:15 PM 28.4 °F 20.4 °F 17.6 °F 64% 30.02 in 10.0 mi SSW 8.1 mph - N/A   Clear
9:35 PM 28.4 °F 21.2 °F 17.6 °F 64% 30.03 in 10.0 mi SW 6.9 mph - N/A   Clear
9:55 PM 26.6 °F 18.2 °F 17.6 °F 69% 30.03 in 10.0 mi SW 8.1 mph - N/A   Clear
10:15 PM 26.6 °F 19.1 °F 17.6 °F 69% 30.03 in 10.0 mi SSW 6.9 mph - N/A   Clear
10:35 PM 26.6 °F 17.5 °F 17.6 °F 69% 30.03 in 10.0 mi SSW 9.2 mph - N/A   Clear
10:55 PM 26.6 °F 18.2 °F 15.8 °F 64% 30.03 in 10.0 mi SW 8.1 mph - N/A   Clear
11:15 PM 26.6 °F 19.1 °F 15.8 °F 64% 30.03 in 10.0 mi SSW 6.9 mph - N/A   Clear
11:35 PM 26.6 °F 20.0 °F 15.8 °F 64% 30.03 in 10.0 mi SSW 5.8 mph - N/A   Clear
11:55 PM 24.8 °F 19.1 °F 14.0 °F 64% 30.02 in 10.0 mi SSW 4.6 mph - N/A   Clear